Deptford, New Jersey, United States
Lat: 39.83N, Lon: 75.13W
Wx Zone: NJZ017
Local Info
Past Weather Observations for Saturday, November 22, 2014

NOTE: This archive is for the closest National Weather Service station to Deptford. Information may differ from the station used for current weather conditions.

Click here for Long-term Archive

Time Weather Temperature Dewpoint Humidity Pressure Winds Precip Visibility
23:54
Mostly Cloudy
45°F / 7°C 23°F / -5°C 42% 30.27 in
(1025 mb)
SW 15 mph
(SW 24 kph)
- 10SM
22:54
Mostly Cloudy
43°F / 6°C 23°F / -5°C 46% 30.27 in
(1025 mb)
S 12.7 mph
(S 20 kph)
- 10SM
21:54
Mostly Cloudy
43°F / 6°C 25°F / -4°C 49% 30.27 in
(1025 mb)
S 9.2 mph
(S 15 kph)
- 10SM
20:54
Mostly Cloudy
43°F / 6°C 23°F / -5°C 46% 30.27 in
(1025 mb)
SW 11.5 mph
(SW 19 kph)
- 10SM
19:54
Overcast
45°F / 7°C 21°F / -6°C 39% 30.3 in
(1026 mb)
SW 11.5 mph
(SW 19 kph)
- 10SM
18:54
Overcast
45°F / 7°C 21°F / -6°C 39% 30.3 in
(1026 mb)
SW 11.5 mph
(SW 19 kph)
- 10SM
17:54
Overcast
45°F / 7°C 19°F / -7°C 37% 30.3 in
(1026 mb)
SW 12.7 mph
(SW 20 kph)
- 10SM
16:54
Mostly Cloudy
45°F / 7°C 18°F / -8°C 34% 30.3 in
(1026 mb)
SW 11.5 mph
(SW 19 kph)
0.00 in
(0.00 mm)
10SM
15:54
Mostly Cloudy
45°F / 7°C 16°F / -9°C 31% 30.33 in
(1027 mb)
SW 12.7 mph
(SW 20 kph)
- 10SM
14:54
Mostly Cloudy
46°F / 8°C 18°F / -8°C 32% 30.33 in
(1027 mb)
SSW 17.3 mph
(SSW 28 kph)
- 10SM
13:54
Mostly Cloudy
45°F / 7°C 18°F / -8°C 34% 30.36 in
(1028 mb)
SW 18.4 mph
(SW 30 kph)
- 10SM
12:54
Partly Cloudy
43°F / 6°C 18°F / -8°C 36% 30.39 in
(1029 mb)
SW 17.3 mph
(SW 28 kph)
- 10SM
11:54
Partly Cloudy
41°F / 5°C 16°F / -9°C 36% 30.42 in
(1030 mb)
SW 15 mph
(SW 24 kph)
- 10SM
10:54
Clear
37°F / 3°C 18°F / -8°C 45% 30.51 in
(1033 mb)
SW 18.4 mph
(SW 30 kph)
- 10SM
09:54
Partly Cloudy
36°F / 2°C 18°F / -8°C 48% 30.54 in
(1034 mb)
SW 13.8 mph
(SW 22 kph)
- 10SM
08:54
Partly Cloudy
30°F / -1°C 18°F / -8°C 59% 30.54 in
(1034 mb)
SW 8.1 mph
(SW 13 kph)
- 10SM
07:54
Partly Cloudy
28°F / -2°C 16°F / -9°C 59% 30.54 in
(1034 mb)
SW 4.6 mph
(SW 7 kph)
- 10SM
06:54
Clear
25°F / -4°C 16°F / -9°C 69% 30.54 in
(1034 mb)
SW 3.5 mph
(SW 6 kph)
- 10SM
05:54
Clear
25°F / -4°C 16°F / -9°C 69% 30.54 in
(1034 mb)
SSW 5.8 mph
(SSW 9 kph)
- 10SM
04:54
Clear
25°F / -4°C 12°F / -11°C 59% 30.54 in
(1034 mb)
SSW 6.9 mph
(SSW 11 kph)
- 10SM
03:54
Clear
27°F / -3°C 14°F / -10°C 59% 30.54 in
(1034 mb)
SW 4.6 mph
(SW 7 kph)
- 10SM
02:54
Clear
25°F / -4°C 10°F / -12°C 54% 30.54 in
(1034 mb)
SSW 5.8 mph
(SSW 9 kph)
- 10SM
01:54
Clear
27°F / -3°C 10°F / -12°C 50% 30.57 in
(1035 mb)
SSW 4.6 mph
(SSW 7 kph)
- 10SM
00:54
Clear
27°F / -3°C 10°F / -12°C 50% 30.57 in
(1035 mb)
SW 5.8 mph
(SW 9 kph)
- 10SM
Time Weather Temperature Dewpoint Humidity Pressure Winds Precip Visibility


Weather for websites

WeatherForYou.com, LLC is not responsible for any damages or problems caused by this service. Current weather conditions are obtained from the closest station including government and personal stations which may have varying degrees of accuracy. Weather forecasts are derived from the NOAA NDFD. Like all things, this site belongs to Jesus Christ... He just trusts me to maintain it. If you have any questions or comments email webmaster@weatherforyou.com

Copyright © 2014, WeatherForYou.com LLC. All rights reserved.